Location: A�t Lahcen
(32.8243°N, 5.4246°W)
Time: 02:02:12
(UTC+00:00)

Spot 2 - Pass Details

Date: 27 January 2021
Orbit: 569 x 774 km, 98.8° (Epoch: 27 February)

Event Time Altitude Azimuth Distance (km) Brightness Sun altitude
Rises 06:17:09 0° 15° (NNE) 2,780 7.4 -13.4°
Reaches altitude 10° 06:19:17 10° 18° (NNE) 1,888 6.6 -12.9°
Maximum altitude 06:23:20 71° 103° (ESE) 623 4.3 -12.1°
Drops below altitude 10° 06:27:31 10° 187° (S) 1,946 6.7 -11.3°
Sets 06:29:44 0° 189° (S) 2,874 7.6 -10.8°
